{"data":{"norad_id":45863,"intl_designator":"2020-045A","name":"APSTAR-6D","alt_names":[],"object_type":"PAYLOAD","status":"ACTIVE","operator":null,"country":"PRC","launch_date":"2020-07-09","launch_site_code":"XICLF","launch_vehicle":null,"mission":null,"orbit_class":"UNKNOWN","rcs_meters":null,"size_class":null,"mass_kg":null,"dimensions":null,"purposes":["comms"],"wikipedia_slug":null,"has_3d_model":false,"image_url":null,"decayed_at":null,"tle_current":{"epoch":"2026-05-24T11:16:13.096992Z","epoch_age_seconds":135069,"freshness":"FRESH","line1":"1 45863U 20045A   26144.46959603 -.00000320  00000+0  00000+0 0  9990","line2":"2 45863   0.0503  99.6761 0002727 353.6276  91.9138  1.00281622 21628","mean_motion":1.00281622,"eccentricity":0.0002727,"inclination_deg":0.0503,"raan_deg":99.6761,"arg_perigee_deg":353.6276,"mean_anomaly_deg":91.9138,"bstar":0,"rev_number":2162,"period_min":1435.9560319038,"perigee_km":35772.339947973,"apogee_km":35795.335088876,"semimajor_km":42161.974518425,"source":"CELESTRAK","updated_at":"2026-05-25T13:38:14.094536Z"}}}